Powrót do katalogu

KUIPER-00012

AktywnyŁącznośćLEO
NORAD 63728·PAYLOAD·🇺🇸 United States

Wystrzelony Apr 28, 2025 z Cape Canaveral Space Force Station

Loading…

Następne Przeloty (najbliższe 24 godziny)

TLE

ŚwieżeSource: CelesTrak SupGP

Epoka: Sep 14, 2026, 23:22 UTC

1 63728C 25088E   26257.97407407  .00001509  00000+0  19761-3 0  2577
2 63728  51.9011 318.5876 0000323  53.0702 158.8022 14.79917701    11

Śledź KUIPER-00012 w czasie rzeczywistym z AllMySat

Download on the App Store